Wind_Speed
23 23 23 21 20 21 21 21 21 21 22 22 23 22 21 19 19 18 19 19 20 21 21 22 22 22 23 24 25 25 26 27 27 26 26 25 25 26 26 26 27 28 29 30 31 30 29 27 24 23 22 22 22 22 22 22 22 23 23 23 23 23 24 24 24 24 24 24 24
24 23 23 22 22 22 22 22 22 23 23 23 22 21 20 19 18 18 19 20 20 21 22 22 22 23 24 25 25 25 26 27 27 26 26 25 25 25 26 27 27 28 29 29 29 28 26 24 24 23 23 22 22 23 23 23 22 23 23 23 23 23 23 23 23 24 24 24 24
24 24 24 23 24 24 24 23 24 25 25 24 22 20 19 18 18 18 19 20 21 22 22 23 23 24 24 24 25 26 26 26 26 26 25 25 25 25 26 27 27 28 28 28 27 26 25 25 24 24 23 23 23 23 23 23 22 22 22 22 22 23 23 23 23 24 24 23 24
24 24 24 24 24 24 24 24 25 26 26 23 22 20 19 18 18 19 20 21 22 22 23 23 24 24 24 24 26 26 27 26 26 25 25 25 25 26 26 27 27 28 27 26 25 25 25 26 25 24 23 23 24 24 23 22 22 22 22 22 23 23 23 23 24 24 24 23 24
25 24 24 24 24 24 25 25 26 26 25 23 21 20 19 19 19 20 21 22 23 23 24 24 23 23 24 25 26 27 27 26 26 25 25 25 25 26 26 27 27 27 26 25 24 25 26 26 25 23 23 23 23 22 22 22 22 23 23 24 24 24 24 24 24 24 24 24 24
25 25 25 24 25 25 25 26 26 26 24 22 21 20 20 20 21 22 23 24 25 25 25 24 23 23 24 26 26 27 27 26 26 25 25 25 25 26 27 27 27 26 25 25 25 26 26 26 24 23 23 22 22 22 22 22 23 24 25 25 25 25 25 25 25 25 25 24 25
25 25 25 25 25 26 26 27 27 26 24 22 21 22 22 22 23 24 26 26 26 25 24 23 23 23 25 26 26 27 26 26 25 25 25 25 26 27 27 27 27 26 26 26 27 26 26 26 24 23 23 23 22 23 23 24 25 26 27 28 27 26 26 25 25 25 25 26 27
26 25 26 26 26 26 27 27 27 25 23 21 21 22 23 24 24 26 27 27 25 24 24 23 23 24 25 25 26 27 27 27 26 26 26 26 26 27 27 27 27 27 27 27 27 27 26 25 24 23 23 23 23 24 25 27 28 29 29 29 28 27 26 26 26 26 26 27 28
26 26 26 26 26 27 27 27 26 24 22 22 22 23 24 24 25 27 27 26 25 25 24 24 24 24 24 25 26 27 27 27 27 27 27 27 27 27 28 28 28 28 28 28 28 27 27 26 24 23 23 24 25 26 28 29 30 30 30 29 28 28 28 28 28 28 28 27 27
27 27 27 27 27 27 28 27 25 23 22 22 23 24 25 25 26 27 27 26 26 26 25 25 24 24 24 25 26 26 27 27 27 27 27 27 28 28 28 28 28 28 29 29 28 28 27 26 24 24 25 26 28 29 30 30 30 30 29 28 28 29 30 31 30 28 27 27 25
27 27 27 27 27 28 27 26 24 22 22 23 24 25 25 26 27 27 27 26 26 26 26 25 24 24 24 25 26 26 27 27 27 28 28 27 28 28 29 29 28 28 29 29 29 28 27 26 26 27 28 29 29 29 29 29 29 29 30 30 30 31 31 31 30 28 27 25 22
27 26 26 27 28 27 26 24 23 23 23 23 24 25 25 26 27 27 27 27 27 27 26 26 25 25 26 26 26 27 27 28 29 29 29 28 28 28 29 29 29 29 29 29 29 28 27 27 28 30 31 31 29 28 28 29 30 30 31 31 31 31 31 30 28 27 26 23 20
26 26 26 27 27 26 25 24 23 23 23 24 24 24 25 25 26 26 26 26 27 27 26 26 26 26 27 27 27 27 28 28 29 29 29 29 28 28 28 29 29 29 30 30 29 28 28 29 30 31 32 31 30 29 29 29 30 30 31 31 32 31 30 29 27 26 24 22 20
25 25 26 27 26 25 24 24 23 23 23 24 24 25 25 26 26 26 26 26 27 27 27 26 26 26 27 27 28 28 28 28 29 29 30 29 28 27 28 29 30 30 30 30 30 30 30 31 32 32 32 32 31 31 31 30 30 30 31 31 31 31 29 26 25 24 23 21 21
25 25 25 26 26 25 24 24 24 23 23 24 25 25 26 26 26 26 26 27 27 27 27 27 27 27 28 28 28 28 28 29 29 29 29 29 28 28 29 30 31 31 31 32 32 32 32 32 31 31 32 32 32 32 32 31 31 31 31 31 30 29 26 24 22 22 21 20 21
25 25 25 25 25 25 25 24 24 24 24 24 25 26 26 26 27 26 26 27 27 27 27 28 28 28 28 28 28 28 28 29 29 29 29 29 29 30 30 31 32 32 33 33 34 34 33 32 32 31 32 32 33 33 33 33 32 32 32 31 28 25 23 21 20 20 20 20 21
25 25 25 25 25 25 25 24 24 25 25 25 26 27 27 27 27 27 27 27 27 27 28 28 28 28 29 29 29 28 28 28 28 28 28 29 30 31 32 32 33 33 34 34 35 35 34 34 33 32 32 33 33 33 33 34 34 33 31 28 24 21 19 18 17 18 19 21 21
25 26 26 25 26 26 25 25 25 25 26 26 27 27 28 28 28 27 27 27 27 28 28 29 29 29 29 30 30 29 29 28 28 27 28 29 30 31 32 33 33 34 35 35 35 35 35 35 34 33 33 34 34 34 34 34 34 32 28 24 19 16 15 15 16 18 19 21 21
25 26 26 26 26 26 26 26 26 26 27 27 27 28 28 28 28 28 28 28 28 28 29 29 29 30 30 30 30 30 29 28 28 28 28 29 30 31 32 33 34 35 35 36 35 35 35 35 35 34 35 35 35 35 35 34 32 28 22 17 14 14 15 15 16 17 19 20 21
26 26 26 27 27 27 27 26 27 27 27 27 28 28 28 28 28 28 29 29 28 28 29 29 30 30 30 31 30 30 29 28 27 27 29 30 31 32 32 33 34 35 35 36 35 35 36 35 35 36 36 36 36 35 34 30 25 19 14 12 14 15 15 15 16 17 19 20 20
26 27 27 27 27 27 26 26 27 27 27 27 28 28 28 28 28 29 29 29 28 29 29 29 30 30 31 31 30 30 29 28 27 28 29 31 31 32 33 33 34 35 35 36 35 35 36 36 36 37 38 37 35 31 26 20 14 10 11 14 17 17 16 14 15 17 18 19 20
27 27 27 27 26 26 26 26 26 26 26 27 27 27 28 28 28 29 29 28 28 29 29 29 30 30 30 30 29 29 29 29 29 30 31 31 32 32 33 33 33 34 35 35 35 35 35 36 38 39 38 33 26 18 12 9 9 11 14 18 20 19 16 14 15 16 17 18 19
27 27 27 26 26 26 26 26 26 26 26 26 27 27 28 28 28 29 28 29 29 29 29 30 30 30 29 29 29 29 29 30 31 32 32 32 32 33 34 33 33 33 33 33 34 34 34 36 38 35 28 18 12 12 12 12 12 14 17 20 21 19 17 14 15 15 16 17 19
27 26 26 25 26 26 26 26 26 26 26 26 27 27 28 28 28 28 28 29 29 30 30 30 30 29 28 28 28 29 30 31 32 32 33 33 33 34 34 33 32 32 32 32 32 33 35 37 32 21 14 17 18 17 16 15 15 17 19 21 21 19 17 15 15 15 16 17 17
26 26 26 26 26 26 26 26 26 26 26 27 27 27 28 28 28 28 29 30 30 31 31 30 29 28 27 27 28 30 31 31 31 32 33 33 33 34 33 32 31 31 32 32 33 35 38 37 21 16 22 23 21 19 18 18 19 20 21 22 21 19 17 16 16 16 17 17 17
26 26 26 26 26 26 26 26 26 26 27 27 27 27 27 28 28 28 29 30 31 31 31 30 28 27 26 26 28 30 31 31 31 32 32 33 33 33 32 31 31 32 33 33 34 38 39 31 15 21 25 24 22 21 20 21 22 23 24 23 22 20 19 18 19 20 21 20 19
26 25 26 26 26 26 26 26 26 26 27 27 27 27 27 28 28 29 30 30 31 31 30 29 27 26 25 26 28 30 31 31 32 32 32 32 32 32 31 31 32 33 34 34 37 39 34 20 19 23 25 24 24 22 22 22 23 25 26 25 24 23 22 21 21 23 24 24 23
25 25 26 25 26 26 26 27 27 27 27 27 27 27 28 28 29 29 30 30 31 30 29 27 26 26 26 27 28 29 31 31 31 31 31 31 31 31 31 31 33 34 34 34 39 36 25 20 25 26 25 25 25 24 23 23 24 26 27 27 26 25 23 22 22 24 25 26 26
25 25 25 26 26 26 27 27 27 27 27 27 28 28 28 28 29 29 29 30 30 29 27 27 27 27 27 28 28 29 30 31 31 31 31 31 30 31 31 32 33 34 35 35 39 32 24 27 28 27 26 25 26 26 25 24 25 26 27 27 27 25 23 22 22 23 24 26 27
26 25 25 25 26 27 27 27 28 28 27 27 27 27 27 28 28 29 29 29 29 27 27 27 27 28 28 28 28 29 30 31 31 31 31 31 31 31 31 32 33 34 34 34 36 31 28 29 28 27 26 25 25 26 26 25 25 26 26 27 28 27 25 23 21 20 22 25 27
26 25 25 25 26 27 27 28 28 28 28 27 27 27 27 28 28 28 29 29 28 27 27 27 28 28 29 28 29 29 30 30 31 31 31 30 31 31 32 32 32 33 33 34 35 31 29 28 28 27 26 25 25 25 25 24 25 25 26 26 27 28 27 26 24 21 20 22 25
26 25 25 26 26 27 27 28 28 28 28 27 27 26 27 27 28 28 29 28 28 27 27 27 28 28 28 29 29 29 30 30 31 31 31 30 31 32 32 32 32 31 32 34 34 31 28 26 27 27 26 25 26 25 25 24 23 24 26 26 27 27 28 29 28 25 22 20 22
27 26 26 26 26 27 27 28 28 28 28 28 27 27 27 28 28 29 29 28 27 27 27 28 28 28 28 28 28 28 29 29 30 31 32 31 31 32 32 32 31 31 31 33 34 32 29 26 27 27 26 25 26 26 25 24 23 23 24 25 26 27 28 30 30 30 27 23 20
27 27 27 27 27 27 28 28 28 28 28 28 28 27 27 28 28 29 29 28 27 27 28 28 28 28 28 28 28 28 28 29 30 32 32 31 31 32 32 32 32 32 33 34 35 33 31 26 27 27 26 26 27 26 25 24 23 23 23 24 26 27 28 29 30 30 30 28 24
28 27 27 27 28 28 28 28 28 28 28 28 28 28 28 27 27 28 28 28 28 28 29 30 30 30 30 29 29 28 28 28 30 31 31 31 31 32 32 33 34 35 35 35 36 35 32 28 28 27 27 27 27 26 25 24 23 23 23 23 25 26 27 28 28 29 30 30 28
28 28 28 28 28 29 29 28 28 28 28 28 28 28 28 27 27 27 27 27 28 29 30 30 31 31 31 31 30 28 27 28 28 29 29 30 30 31 32 33 36 37 36 36 36 35 34 30 29 28 28 28 27 26 25 23 22 21 22 22 23 24 25 27 27 28 29 29 29
28 28 28 28 29 29 28 28 27 27 27 27 27 27 27 27 27 27 27 27 28 29 30 31 31 31 30 30 29 28 27 27 27 27 28 28 29 30 30 32 35 37 36 36 37 36 34 32 29 28 28 29 27 26 25 24 22 21 20 20 21 22 23 25 26 27 28 29 28
29 29 29 29 28 28 27 27 27 27 27 27 27 27 26 26 26 26 27 27 28 29 29 30 30 30 29 29 28 27 27 27 26 26 26 27 28 28 29 31 33 35 35 34 36 36 35 32 30 28 28 29 27 26 25 24 24 22 21 19 19 20 21 22 24 26 27 28 27
28 29 29 28 28 27 26 26 26 27 26 26 26 26 26 26 26 26 27 27 28 29 29 29 29 29 28 27 26 26 27 26 25 25 25 25 26 26 27 29 32 33 34 33 35 36 35 32 30 28 28 28 27 26 25 25 25 24 23 21 20 20 20 21 22 24 26 28 27
28 29 28 28 26 25 25 26 26 27 26 26 26 26 26 26 26 27 28 28 29 29 28 28 28 28 27 25 24 25 26 26 25 24 24 24 25 25 26 29 30 32 32 31 33 34 33 32 31 29 27 27 27 26 25 25 25 25 24 22 21 20 20 21 21 22 24 27 27
28 28 28 27 25 25 25 26 26 27 26 26 26 25 25 26 27 28 28 29 29 29 28 27 27 26 25 24 23 24 25 25 25 24 23 24 25 26 27 28 29 30 31 31 31 32 32 32 31 29 27 26 26 25 24 25 24 24 24 22 21 21 20 20 21 21 23 25 27
Wind_Direction
343 342 342 340 338 337 336 335 334 332 331 330 329 328 326 324 322 322 322 323 324 324 324 324 324 324 325 327 328 329 329 329 329 329 328 328 327 327 327 326 323 321 319 319 320 320 321 322 321 319 317 314 312 310 308 308 307 308 309 309 310 311 311 310 309 307 307 306 305
342 342 341 340 338 337 336 335 333 332 332 331 329 328 326 323 322 322 322 323 323 323 323 323 323 324 324 326 327 328 328 328 328 328 328 327 327 327 327 325 323 321 320 320 322 323 324 325 324 321 317 314 312 309 308 309 309 309 310 310 311 311 310 309 308 307 307 306 306
341 341 340 339 338 338 337 335 334 333 332 331 330 328 326 324 322 321 321 322 323 323 323 323 323 323 324 325 326 327 327 327 327 327 327 327 327 326 326 325 324 322 321 322 324 326 326 326 324 320 317 314 311 309 308 309 311 312 312 311 311 310 309 307 307 307 306 305 305
341 340 339 338 338 337 336 334 334 333 333 331 330 328 327 324 323 322 322 322 322 323 322 322 321 322 323 325 326 326 327 327 327 326 326 326 326 326 326 326 324 322 322 324 326 327 327 326 323 319 315 312 309 308 310 311 313 313 312 311 310 308 307 306 305 306 305 304 303
340 339 338 337 336 335 334 334 334 333 332 331 329 328 326 325 324 323 323 323 322 321 320 319 319 321 323 324 325 326 326 327 327 327 326 325 326 326 326 325 323 322 323 323 325 325 325 324 321 317 313 310 309 309 310 311 312 312 311 310 309 308 306 305 304 304 304 302 302
338 338 337 336 335 334 334 334 334 333 332 330 328 326 325 324 324 322 321 321 320 320 320 319 319 321 323 325 325 326 326 326 326 326 325 325 326 326 325 323 323 322 322 322 322 323 323 322 320 316 313 310 309 309 310 311 312 311 310 309 308 307 305 304 303 303 303 302 302
337 337 336 335 334 334 333 334 333 333 331 329 327 326 325 324 322 321 319 320 320 320 320 320 320 322 323 325 326 326 325 325 324 324 325 325 326 326 324 323 323 321 320 320 320 321 321 321 319 316 314 312 310 310 310 311 311 310 309 308 307 305 304 303 303 303 303 303 303
337 337 336 335 334 333 333 333 333 332 330 327 326 325 325 323 321 320 320 321 320 319 318 318 318 321 323 325 325 325 325 324 324 324 324 325 325 324 324 323 322 321 320 319 319 320 320 319 317 314 312 311 311 310 310 311 310 309 307 306 305 305 304 304 305 305 304 304 305
338 337 336 335 334 333 333 333 332 331 328 326 325 325 324 323 321 321 320 320 319 318 317 316 317 320 323 325 325 325 324 323 322 323 323 324 324 324 323 323 322 321 320 320 320 319 319 317 316 313 311 311 310 309 309 309 309 307 306 305 305 305 306 306 307 307 308 307 304
339 338 337 335 334 333 332 332 331 329 327 326 326 326 325 323 323 322 321 320 318 317 317 317 318 321 323 325 326 325 324 323 322 321 321 321 322 323 322 322 321 320 319 320 320 319 318 316 314 312 311 310 308 308 308 308 308 306 305 305 305 306 307 309 310 311 310 307 303
340 339 337 336 334 333 333 332 331 329 328 327 327 327 326 326 325 324 323 321 320 319 318 319 321 323 325 326 326 326 325 323 322 321 320 319 319 320 321 321 320 319 319 320 319 318 317 316 314 312 311 310 309 308 308 307 307 306 305 305 306 307 308 311 314 314 310 305 302
341 340 338 336 335 335 334 333 331 330 330 329 329 328 328 327 326 325 324 323 322 321 320 322 325 327 328 328 327 326 324 323 322 321 320 319 318 319 320 320 320 320 320 319 319 318 317 315 313 312 311 310 309 308 307 307 306 306 306 307 308 309 310 313 315 313 308 304 305
341 340 339 338 337 336 335 334 333 332 331 331 330 330 329 328 328 327 326 324 323 321 320 323 327 329 330 328 326 325 324 323 322 321 320 319 318 318 319 320 321 321 321 320 319 317 316 314 313 311 310 310 309 307 307 306 306 306 307 308 310 311 312 314 314 311 308 306 309
341 340 339 339 338 338 337 336 334 333 333 332 332 331 331 330 329 328 327 324 323 322 322 325 329 330 330 328 326 325 324 323 322 321 319 320 319 318 320 321 322 322 321 320 319 317 315 314 313 312 310 309 309 308 308 307 308 308 309 309 310 311 312 313 313 311 310 310 313
340 340 340 339 339 339 338 337 336 334 333 332 332 332 331 331 330 329 327 326 326 327 327 329 330 330 329 327 326 324 324 324 323 322 321 320 320 320 321 322 322 322 321 320 319 317 316 314 313 312 311 310 309 309 309 310 310 310 311 310 310 311 311 311 312 313 313 314 316
339 339 339 339 339 339 338 336 335 334 333 332 332 331 330 329 329 329 329 329 330 331 331 331 329 328 328 328 327 325 325 325 324 324 323 323 323 323 323 322 322 322 321 320 319 318 316 315 313 312 311 310 309 309 310 311 311 311 312 312 311 311 311 312 315 318 319 320 321
338 338 338 338 338 337 336 334 334 333 332 331 332 332 331 329 329 330 331 332 331 331 331 330 329 328 328 328 328 326 325 324 325 325 326 325 325 324 323 323 322 322 321 320 319 318 317 316 315 313 311 310 309 309 309 310 311 311 312 312 313 315 318 322 326 328 328 329 329
337 337 337 337 336 335 334 333 333 332 332 331 331 331 330 329 330 331 332 333 333 331 330 330 330 329 328 328 328 327 326 324 325 326 327 327 325 324 324 323 323 323 322 321 320 318 317 316 315 314 312 310 309 309 309 309 309 310 311 312 318 327 335 339 339 339 339 340 340
336 336 336 336 335 334 333 333 333 332 332 332 331 331 331 331 332 333 334 334 334 333 331 331 332 331 330 329 328 328 327 325 325 325 326 327 326 325 324 324 324 324 323 322 320 318 317 316 315 313 311 309 308 307 307 307 308 309 312 320 336 349 353 352 351 352 353 353 351
336 336 336 336 335 334 334 334 334 334 334 334 334 334 334 335 335 336 336 335 335 334 334 334 333 332 332 331 330 329 328 327 325 325 326 327 327 326 326 326 326 325 324 322 320 318 317 316 314 312 310 308 306 305 304 305 308 313 328 350 4 7 5 3 4 5 5 3 358
338 337 337 337 336 335 335 335 336 336 336 336 337 337 337 338 338 338 337 336 337 337 336 336 334 334 333 333 332 330 329 328 327 326 327 327 327 327 327 327 326 326 325 323 320 319 318 315 314 312 310 307 305 305 306 311 323 346 9 16 17 15 15 15 16 16 13 7 3
340 339 339 339 338 338 338 338 339 339 339 339 340 340 340 340 341 340 340 339 339 339 338 337 336 336 335 334 333 332 331 329 328 328 327 327 327 328 328 328 327 326 325 323 321 319 318 315 313 312 310 308 310 318 336 1 20 25 23 21 19 20 22 26 26 23 18 13 10
342 342 342 341 341 341 341 341 342 343 342 342 343 343 343 343 343 342 342 341 340 339 338 338 338 337 337 336 335 333 331 330 329 329 329 328 329 329 330 330 329 327 324 322 320 318 315 314 313 313 316 329 360 31 43 40 33 27 23 21 19 20 25 34 33 28 22 18 17
345 345 344 343 344 344 344 344 344 345 344 344 344 344 344 344 344 343 342 340 339 338 338 338 338 337 337 336 335 334 332 331 329 329 330 330 331 332 332 331 329 327 325 322 319 317 315 314 316 330 12 43 51 51 44 34 28 25 23 21 17 18 25 36 36 30 23 20 20
347 347 346 346 345 345 345 345 345 346 346 346 346 345 345 345 344 342 340 339 338 337 337 337 337 337 337 336 335 335 334 332 330 329 330 331 332 333 333 332 330 328 326 323 320 319 319 321 338 34 55 51 48 42 35 30 28 27 25 22 18 19 27 38 37 30 23 19 17
348 348 348 347 346 345 345 346 346 346 346 346 346 346 345 345 343 341 339 337 337 336 336 336 337 337 336 336 335 335 334 333 331 331 331 332 333 333 333 332 330 329 327 324 322 322 324 333 18 56 53 46 43 38 33 31 31 31 29 26 24 27 35 40 36 30 25 20 15
349 348 348 347 347 347 346 346 346 347 347 347 346 345 344 344 342 341 339 337 337 336 336 336 337 337 336 336 335 334 334 333 333 332 332 332 332 333 333 332 331 330 328 325 325 326 331 358 46 55 49 46 44 40 36 34 34 33 32 30 31 36 42 42 36 30 26 23 17
348 348 348 347 348 348 347 347 347 347 347 347 346 346 345 343 342 341 339 338 337 337 336 337 338 337 337 336 335 334 334 334 334 333 333 333 333 334 334 333 334 333 330 327 330 337 355 42 52 50 47 45 44 43 41 39 38 36 34 33 35 39 42 41 37 32 28 24 19
348 348 348 348 348 348 348 347 347 346 346 346 346 345 344 342 342 341 340 338 338 337 336 336 337 337 336 336 335 335 336 335 335 334 334 334 334 335 336 336 336 335 332 331 341 358 31 52 49 45 44 43 44 44 44 43 41 38 36 35 35 36 37 38 37 34 31 26 21
349 349 349 348 347 347 347 346 346 345 344 343 343 342 342 342 342 341 340 339 338 337 336 336 336 336 336 336 336 336 336 336 336 336 335 336 337 338 338 339 338 337 335 335 349 13 41 49 46 43 41 41 42 43 44 44 42 40 37 35 34 34 33 33 34 34 32 29 25
350 349 347 347 347 346 345 344 343 343 342 340 340 340 341 341 341 340 340 339 338 338 338 337 337 337 337 337 337 336 336 336 336 336 337 338 339 339 340 340 340 339 339 341 354 15 38 46 44 41 40 39 40 41 42 42 41 39 37 34 32 31 30 29 28 29 31 31 28
350 348 347 346 345 344 342 341 340 340 340 339 338 339 340 340 339 340 340 339 338 338 338 338 338 337 337 337 336 336 336 336 336 337 338 339 340 341 341 342 342 341 341 346 357 16 36 46 43 41 40 39 39 38 38 38 38 37 36 33 30 28 27 26 25 24 25 29 30
350 348 346 345 343 341 340 340 339 339 339 338 338 338 339 339 340 340 340 340 339 339 339 339 339 338 336 336 335 335 335 335 336 337 339 341 342 342 342 343 343 342 343 347 357 15 35 46 43 41 40 39 39 38 36 34 34 34 33 31 29 27 27 27 26 24 22 22 26
349 347 346 344 343 341 340 340 340 340 340 340 340 340 340 339 339 339 340 339 339 339 339 339 339 338 336 335 335 334 334 335 336 338 340 342 343 343 343 343 343 344 345 348 357 14 33 46 43 40 40 39 39 38 35 32 30 29 29 29 28 27 27 28 28 26 23 19 19
348 346 344 343 342 341 340 340 341 342 343 343 343 343 342 341 341 340 340 339 339 339 340 340 340 339 338 337 336 335 335 335 337 338 340 343 344 344 344 344 345 346 346 349 357 13 31 43 41 39 39 39 38 38 36 33 30 27 26 26 26 25 25 26 26 26 24 20 15
347 345 343 342 341 341 341 341 343 345 347 347 346 345 344 343 342 342 341 340 340 340 340 340 340 340 339 338 337 337 336 336 338 340 342 344 345 345 345 346 347 348 348 350 358 13 29 40 39 37 36 36 36 36 35 33 30 27 25 24 24 22 21 21 22 23 22 19 13
347 346 344 342 341 341 343 345 348 350 351 351 349 347 345 344 343 343 343 341 341 340 340 340 340 340 339 338 337 337 339 341 343 344 346 347 348 348 347 348 350 350 350 351 1 15 29 37 36 35 34 33 33 33 32 31 30 28 26 24 23 21 19 18 18 18 18 17 12
348 347 345 344 343 345 347 350 353 354 354 353 352 350 347 345 344 344 343 343 342 341 340 340 340 340 340 339 339 341 345 349 351 351 352 353 353 352 350 350 351 353 353 355 5 18 29 35 33 33 33 32 32 31 29 28 28 27 26 24 22 20 19 16 15 14 14 14 11
349 347 346 346 347 349 353 355 357 357 356 355 353 350 348 346 345 345 344 344 343 342 341 341 340 341 342 343 344 347 351 356 358 359 359 359 358 356 354 353 354 357 359 2 10 19 27 31 31 31 31 32 32 30 29 27 27 26 26 24 21 19 17 15 13 11 10 11 11
351 349 349 349 351 355 357 358 358 357 357 355 353 350 348 346 346 346 345 345 345 345 345 344 344 345 347 349 351 352 355 359 3 6 7 6 4 1 358 357 358 1 5 8 13 18 23 26 29 31 32 32 32 32 29 27 26 26 25 23 20 17 15 14 12 10 9 9 10
353 352 352 353 357 359 360 359 357 357 356 355 353 350 348 347 347 347 346 347 347 348 347 347 348 351 354 355 356 356 358 2 7 11 13 12 10 6 3 2 4 7 11 13 15 18 21 23 26 30 32 33 33 33 31 27 27 26 25 23 20 17 14 12 11 10 9 8 8
Height
887 885 884 883 882 881 879 878 877 876 874 873 871 869 868 866 864 863 862 860 859 857 855 854 853 851 849 848 847 845 844 842 841 840 838 837 835 834 832 830 829 827 825 823 821 819 818 816 815 814 812 811 809 807 806 804 803 801 800 798 797 795 794 792 790 789 787 786 785
886 885 884 883 882 880 879 878 876 875 874 872 870 869 867 866 864 863 861 860 859 857 855 854 852 851 849 848 846 845 843 842 840 839 837 836 834 833 831 829 828 826 824 822 820 819 817 816 814 813 811 809 808 806 804 803 802 800 799 797 796 795 793 791 789 787 786 785 783
886 884 883 882 881 880 878 877 875 874 873 871 870 869 867 866 864 863 861 860 859 857 855 854 852 850 849 847 846 844 843 841 839 838 836 835 833 832 830 829 827 825 823 822 820 819 817 816 814 812 810 809 807 805 803 801 800 799 798 796 795 793 792 790 788 786 785 783 782
885 884 883 882 880 879 878 877 875 874 872 871 869 868 867 866 864 863 861 859 858 857 855 853 851 849 848 846 845 844 842 840 839 837 835 834 832 831 829 828 826 824 822 821 819 818 817 815 813 812 809 808 806 804 802 801 799 799 797 795 794 792 790 789 787 785 784 782 780
884 884 883 881 880 879 878 876 875 873 872 870 869 868 867 865 864 862 861 859 858 856 854 853 851 849 848 846 844 843 841 839 838 836 835 833 831 830 828 827 825 823 821 820 819 817 816 814 812 810 809 807 805 803 801 800 799 797 796 795 793 791 789 787 785 784 782 781 779
884 883 882 881 879 878 877 876 874 873 871 870 869 867 866 865 863 862 860 859 857 855 853 851 850 848 847 845 843 842 840 839 837 835 834 832 830 829 827 825 824 822 821 819 818 816 814 813 811 809 807 805 804 802 801 799 798 796 795 793 791 790 788 786 784 783 781 780 778
884 882 881 880 879 878 876 875 874 872 871 869 868 867 865 864 863 861 859 857 855 854 852 850 849 847 846 844 842 841 839 838 836 834 833 831 829 828 826 824 823 821 819 818 816 815 813 812 810 808 806 804 803 801 799 798 797 795 793 791 790 788 786 785 783 781 780 778 776
883 882 881 879 878 877 875 874 873 871 870 869 867 866 864 863 861 859 858 856 854 853 851 849 848 846 845 843 842 840 838 836 835 833 832 830 829 827 825 824 822 820 819 817 815 814 812 811 809 807 805 803 801 799 798 797 795 794 792 790 788 786 785 783 781 780 778 776 775
882 881 880 879 878 876 875 873 872 870 869 868 866 865 864 862 860 859 857 855 854 852 850 848 847 845 844 842 841 839 837 835 834 832 830 829 828 826 824 822 820 819 817 815 814 812 811 809 808 806 804 803 801 799 797 795 794 792 790 789 786 785 783 781 780 778 776 775 773
881 880 879 878 876 875 874 872 871 870 868 867 865 864 863 861 859 858 856 854 853 851 849 847 845 844 843 841 839 838 836 834 833 831 829 828 826 824 823 821 819 818 816 814 813 811 809 808 806 804 803 801 799 797 795 794 792 790 789 787 785 783 781 779 778 776 775 773 771
881 879 878 877 876 874 873 871 870 869 868 866 865 863 862 860 859 857 855 854 852 850 848 846 845 843 842 840 839 837 835 834 832 830 828 826 825 823 821 820 818 816 814 813 811 809 808 806 804 803 801 799 798 796 794 792 791 789 787 785 783 781 779 777 775 774 773 771 770
880 879 878 877 875 874 872 871 869 868 867 865 864 863 861 859 858 856 854 853 851 849 847 846 844 843 841 839 838 836 834 833 831 829 827 825 824 822 820 819 817 815 814 812 810 808 806 804 803 800 799 797 796 795 793 791 789 787 785 783 781 780 778 776 774 773 771 770 770
880 879 877 876 875 873 872 870 869 868 866 865 864 862 860 859 857 855 854 852 850 848 846 845 844 842 840 839 837 835 834 832 830 828 826 824 822 820 819 817 815 814 812 810 809 807 805 803 801 799 797 795 793 792 791 789 787 785 783 781 779 778 776 775 773 772 770 770 769
880 879 877 876 874 873 872 870 869 867 866 864 863 862 860 858 857 855 853 851 849 847 845 844 843 841 840 838 836 834 833 831 829 827 825 823 821 819 818 816 814 813 811 809 807 805 804 801 799 797 795 792 791 789 788 787 785 784 781 780 778 776 775 774 772 771 770 769 767
880 879 877 876 874 873 872 870 869 867 865 864 863 861 859 858 856 854 852 850 849 847 845 844 842 840 839 837 835 834 831 829 828 826 824 821 820 818 816 815 813 811 809 807 805 803 802 800 798 795 793 790 788 787 785 784 783 781 780 778 777 775 774 773 771 770 769 768 766
879 878 877 875 874 873 871 870 868 867 865 864 862 861 859 857 855 854 852 850 848 846 845 843 842 840 838 836 834 832 830 829 826 824 823 820 819 817 815 813 811 809 807 805 803 801 799 797 796 794 791 789 787 785 784 782 781 780 778 777 776 775 773 772 771 770 768 767 765
879 878 876 875 874 872 871 869 868 866 865 863 862 860 859 856 854 853 851 850 848 846 844 843 841 839 837 835 833 831 829 827 825 824 822 820 818 816 814 812 810 808 806 804 801 799 796 795 793 792 790 788 785 784 782 780 779 778 776 775 775 774 772 771 770 769 768 766 765
879 877 876 874 873 872 870 869 867 866 864 863 861 859 858 856 854 852 851 849 848 846 844 842 840 838 836 834 832 830 828 826 824 823 821 819 817 815 813 811 809 807 804 802 799 797 795 792 791 789 787 785 783 781 780 779 777 776 775 774 774 773 772 771 770 768 767 765 764
878 877 875 874 873 871 869 868 867 865 864 862 860 859 857 855 854 852 850 849 847 845 843 841 839 837 835 833 831 829 828 826 824 822 820 818 816 814 812 810 808 805 803 801 798 795 793 791 789 787 785 783 781 779 778 777 776 775 774 774 773 772 771 770 769 768 766 765 764
878 876 875 873 872 870 869 867 866 864 863 862 860 858 856 855 853 852 850 848 846 844 842 840 838 836 834 832 830 828 827 825 823 821 819 817 815 813 811 809 807 804 802 799 796 794 791 789 787 785 782 780 779 777 776 775 775 774 774 773 772 771 770 769 768 767 766 765 764
877 876 874 873 871 870 868 867 866 864 863 861 859 858 856 854 853 851 849 847 846 844 842 840 838 835 833 831 829 828 826 824 822 820 818 816 814 812 810 808 806 803 800 798 795 792 789 787 784 782 780 778 776 775 775 774 774 774 773 772 771 770 770 769 768 767 766 765 764
877 876 874 873 871 869 868 867 865 864 862 861 859 858 856 854 853 851 849 847 845 843 841 839 837 835 833 831 829 827 825 823 821 819 817 815 813 811 809 807 805 802 799 796 793 790 787 785 782 779 777 775 774 774 774 774 774 773 772 771 770 770 769 769 768 767 766 765 764
877 875 874 872 871 869 868 867 865 864 862 860 859 857 855 854 852 850 848 846 844 842 840 839 836 834 832 830 829 826 824 822 820 818 816 814 812 810 808 806 804 801 798 795 792 789 786 783 780 778 775 774 774 774 774 774 773 772 771 771 770 770 769 769 768 767 766 765 764
877 875 874 872 871 869 868 866 865 863 862 860 859 857 855 854 852 850 848 846 844 842 840 838 836 834 832 830 828 826 824 822 819 817 815 813 811 809 807 805 803 800 797 794 791 788 785 782 780 777 775 774 774 774 774 774 773 772 771 770 770 769 769 769 768 767 766 765 764
877 875 874 872 870 869 867 866 864 863 861 860 858 857 855 853 851 849 847 845 843 841 839 837 835 834 832 830 828 826 824 821 819 816 814 812 810 809 807 804 802 799 796 793 790 787 784 781 779 777 775 775 775 775 774 773 772 772 771 770 770 769 769 769 768 767 766 765 764
877 875 874 872 870 869 867 866 864 863 861 860 858 856 854 853 851 849 847 844 842 840 838 837 835 833 831 829 827 825 823 820 818 816 814 812 810 808 806 804 802 799 796 792 789 786 782 780 778 776 775 775 775 775 774 773 773 772 771 770 770 769 769 769 769 768 766 765 764
877 875 874 872 870 869 867 866 864 863 861 859 858 856 854 852 850 848 846 844 842 840 838 836 835 833 831 829 827 824 822 820 818 815 814 812 810 808 806 804 801 798 795 792 789 785 782 780 778 777 776 776 776 775 775 774 774 773 772 771 770 770 770 770 769 768 767 765 764
877 875 874 872 870 869 867 866 864 862 861 859 857 856 854 852 850 848 846 844 842 839 838 836 835 833 831 829 827 824 822 820 817 815 813 812 810 808 806 804 801 799 795 792 789 785 781 779 778 778 778 777 776 776 776 775 775 774 773 772 771 771 771 770 770 769 768 766 765
877 875 874 872 870 869 867 865 864 862 860 859 857 855 853 851 849 848 845 843 841 839 838 836 834 833 831 829 827 824 822 819 817 815 813 811 810 808 806 804 801 798 795 792 790 786 781 780 779 780 780 779 778 777 777 776 776 775 774 774 773 773 772 771 771 770 769 768 766
877 875 873 872 870 869 867 865 864 862 860 859 857 855 853 851 849 847 845 843 841 840 838 836 834 833 831 829 827 824 822 819 817 815 813 811 810 808 806 804 802 799 796 793 791 787 783 781 781 781 781 780 779 779 778 778 777 777 776 775 775 774 774 773 772 771 770 769 768
876 875 873 872 870 868 867 865 863 861 859 858 856 854 852 850 849 847 845 843 841 840 838 836 834 833 831 829 827 824 822 819 817 815 813 812 810 808 806 804 802 799 797 795 793 790 786 784 784 784 783 782 781 780 780 779 779 778 778 777 777 776 775 774 773 772 771 771 769
876 875 873 872 870 868 866 864 863 861 859 857 855 854 852 850 849 847 845 843 841 840 838 836 834 832 830 829 826 824 822 819 817 815 814 812 810 808 806 804 802 800 798 796 794 791 788 786 785 785 785 784 783 782 781 781 780 780 780 779 778 777 776 775 774 772 772 772 771
876 874 873 871 869 868 866 864 862 860 859 857 855 854 852 850 848 846 844 843 841 840 838 836 834 833 830 828 826 824 822 820 818 815 814 812 810 808 806 804 802 800 799 797 795 792 790 788 787 786 786 785 784 783 783 782 781 781 781 780 779 778 777 775 774 773 772 772 771
876 874 872 871 869 867 865 863 861 860 858 857 855 853 852 850 848 846 844 842 841 840 838 836 835 833 831 829 827 824 822 820 818 816 814 812 810 808 806 804 802 800 799 797 795 793 790 789 788 787 787 786 785 785 784 783 783 782 782 781 780 779 778 776 775 774 773 772 772
875 874 872 870 868 866 864 863 861 860 858 856 855 853 851 849 848 846 844 843 841 840 838 836 834 833 830 828 826 824 823 820 819 816 814 813 811 809 807 804 802 800 799 797 796 794 791 789 789 788 788 787 786 786 785 785 784 783 783 782 781 780 779 777 776 775 774 772 772
875 873 871 869 868 866 864 863 861 860 858 857 855 853 851 849 848 846 845 843 841 839 838 836 834 832 830 828 826 824 823 821 819 817 815 814 812 809 808 805 803 801 799 797 796 794 792 790 790 789 788 788 787 787 786 786 785 785 784 783 782 781 780 779 778 776 775 773 772
875 873 871 869 867 866 864 863 861 860 859 857 855 854 852 850 848 847 845 844 842 840 838 836 834 832 830 828 826 824 823 822 820 818 816 814 813 811 809 807 804 802 799 798 796 795 792 791 791 790 790 789 788 788 787 787 786 786 785 784 784 783 782 781 779 778 776 775 774
875 873 871 869 867 866 864 863 862 860 859 857 856 854 852 850 849 847 846 844 842 840 839 837 835 833 831 829 827 825 824 822 821 819 818 816 814 812 810 809 806 803 801 799 798 795 793 793 792 792 791 790 790 789 789 788 787 787 786 785 785 784 783 782 781 779 778 776 775
875 873 871 869 868 866 865 864 862 861 859 858 856 854 852 850 849 848 846 844 843 841 839 837 835 833 831 829 828 825 824 823 821 820 819 817 815 814 812 810 807 805 803 801 799 797 795 795 794 793 792 791 791 790 790 789 789 788 787 786 786 785 784 783 782 781 780 778 777
875 873 871 870 868 867 865 864 863 861 860 858 856 854 853 851 849 848 846 845 843 842 840 838 836 834 832 830 828 826 824 823 822 821 819 818 817 815 814 811 809 806 805 804 801 799 798 797 796 795 794 793 793 792 792 791 790 789 788 788 787 786 785 785 784 782 781 779 778
876 874 872 870 869 867 866 864 863 862 860 859 857 855 853 852 850 848 847 845 843 842 840 838 836 834 832 831 829 827 825 824 823 821 820 819 818 816 814 812 810 808 807 805 803 802 800 799 797 797 796 795 795 794 793 792 791 790 790 789 789 788 787 786 785 784 782 781 779